Miscellaneous Local Product
Issued by NWS Hastings, NE

Home | Current Version | Previous Version | Graphics & Text | Print | Product List | Glossary On
Versions: 1 2 3 4 5 6 7 8 9 10 11 12 13 14 15 16 17 18 19 20 21 22 23 24 25 26 27 28 29 30 31 32 33 34 35 36 37 38 39 40 41 42 43 44 45 46 47 48 49 50
000
AXUS43 KGID 080702
MISGRI

GID CWA HOURLY WEATHER ROUNDUP
NATIONAL WEATHER SERVICE HASTINGS NE
100 AM CST THU DEC 08 2016

NOTE: "FAIR" INDICATES FEW OR NO CLOUDS BELOW 12,000 FEET WITH NO
SIGNIFICANT WEATHER AND/OR OBSTRUCTIONS TO VISIBILITY.

...SOUTH CENTRAL NEBRASKA...

CITY           SKY/WX    TMP DP  RH WIND       PRES   REMARKS
GRAND ISLAND   CLEAR     11   2  67 NW17      30.51S WCI  -6
HASTINGS       CLEAR     12   1  61 NW16      30.52S WCI  -5
KEARNEY        CLEAR     10  -2  56 NW16G23   30.52S WCI  -7
ORD            CLEAR      9  -2  61 NW16      30.49S WCI  -8
YORK           CLEAR     12   5  73 NW15      30.50S WCI  -4
AURORA         CLEAR     12   2  63 NW21      30.50S WCI  -6
LEXINGTON      CLEAR      9   2  73 NW9       30.53S WCI  -4
HOLDREGE       CLEAR     11   2  66 NW16G25   30.51S WCI  -5
HEBRON         PTCLDY    14   6  69 NW9       30.54R WCI   2

...NEBRASKA PANHANDLE...

CITY           SKY/WX    TMP DP  RH WIND       PRES   REMARKS
CHADRON        CLEAR      1  -6  72 W12       30.52R WCI -16
ALLIANCE       CLEAR     -3  -8  79 NW9       30.45R WCI -19
SCOTTSBLUFF    CLEAR     -6 -12  75 NW7       30.49R WCI -20
SIDNEY         CLEAR     -3  -9  75 W14       30.44F WCI -22

...WESTERN AND NORTH CENTRAL NEBRASKA...

CITY           SKY/WX    TMP DP  RH WIND       PRES   REMARKS
VALENTINE      CLEAR      5  -4  66 NW17      30.50S WCI -14
AINSWORTH      CLEAR      7  -1  70 NW16G24   30.49S WCI -12
ONEILL         CLEAR      9   0  68 NW20      30.48R WCI -11
BROKEN BOW     CLEAR      8  -1  66 NW17      30.50R WCI -10
IMPERIAL       CLEAR      2  -6  69 NW13      30.52S WCI -15
NORTH PLATTE   CLEAR      5  -2  72 W10       30.52S WCI -10
MCCOOK         CLEAR      2  -4  76 W15       30.55S WCI -17

...EASTERN NEBRASKA...

CITY           SKY/WX    TMP DP  RH WIND       PRES   REMARKS
NORFOLK        NOT AVBL
SO SIOUX CITY  FLURRIES  15   5  64 NW28G33   30.42F WCI  -5
TEKAMAH        CLEAR     14   4  64 NW21      30.46R WCI  -4
COLUMBUS       CLEAR     12   0  57 W17G26    30.48S WCI  -5
ALBION         CLEAR     11   1  63 NW16G29   30.47S WCI  -6
OMAHA EPPLEY   CLEAR     15   4  61 NW16G23   30.47S WCI  -1
OFFUTT AFB     CLEAR     15   4  62 W17G23    30.47R WCI  -1
MILLARD        CLEAR     16   5  61 W12G23    30.48S WCI   3
LINCOLN        CLEAR     15   3  59 NW18      30.51S WCI  -2
NEBRASKA CITY  PTCLDY    16   2  55 NW14G28   30.47F WCI   1
BEATRICE       CLEAR     16   7  67 NW18G24   30.50S WCI  -1
FALLS CITY     CLEAR     18   7  62 NW13G23   30.49R WCI   5

...NORTHERN KANSAS...

CITY           SKY/WX    TMP DP  RH WIND       PRES   REMARKS
GOODLAND       CLEAR      1  -5  75 W13       30.49S WCI -17
HILL CITY      CLEAR      8   2  76 NW8       30.57S WCI  -4
NORTON         SUNNY      5  -2  72 W12       30.53  WCI -11
PHILLIPSBURG   CLEAR      9   1  72 W7        30.57S WCI  -3
SMITH CENTER   CLEAR      5   0  78 W7        30.57R WCI  -7
BELOIT         CLEAR     10   3  72 NW8       30.56F WCI  -1
RUSSELL        CLEAR     12   8  84 NW8       30.56R WCI   0
CONCORDIA      NOT AVBL
SALINA         CLEAR     17  10  74 NW12      30.57R WCI   4
TOPEKA         CLEAR     19   8  62 NW8       30.52R WCI   9



USA.gov is the U.S. government's official web portal to all federal, state and local government web resources and services.